Weather History for Kirksville, MO

Change the Weather History Date:

Friday, June 28, 2013

  Actual Average Record
Temperature  
Mean Temperature 75 °F 73 °F  
Max Temperature 85 °F 84 °F 106 °F (1936)
Min Temperature 64 °F 63 °F 48 °F (1987)
Degree Days  
Heating Degree Days 0 0  
Month to date heating degree days 36 12  
Since 1 June heating degree days 36 12  
Since 1 July heating degree days 6071 5852  
Cooling Degree Days 10 9  
Month to date cooling degree days 198 174  
Year to date cooling degree days 266 236  
Since 1 June cooling degree days 198 174  
Growing Degree Days 24 (Base 50)    
Moisture  
Dew Point 60 °F    
Average Humidity 65    
Maximum Humidity 93    
Minimum Humidity 37    
Precipitation  
Precipitation 0.00 in 0.12 in 3.17 in (1933)
Month to date precipitation 3.27 4.58  
Year to date precipitation 27.74 18.73  
Sea Level Pressure  
Sea Level Pressure 29.84 in    
Wind  
Wind Speed 9 mph (WNW)    
Max Wind Speed 22 mph    
Max Gust Speed 31 mph    
Visibility 10 miles    
Events      
T = Trace of Precipitation, MM = Missing Value Source: NWS Daily Summary

Daily Weather History Graph

Daily Weather History Graph

Search for Another Location

Airport:

Trip Planner

Search our weather history database for the weather conditions in past years. The results will help you decide how hot, cold, wet, or windy it might be!

Date:

Astronomy

Jun. 28, 2013 Rise Set
Actual Time 5:43 AM CDT 8:43 PM CDT
Civil Twilight 5:10 AM CDT 9:16 PM CDT
Nautical Twilight 4:28 AM CDT 9:57 PM CDT
Astronomical Twilight 3:40 AM CDT 10:46 PM CDT
Moon No Moon Rise 11:51 AM CDT (6/28)
Length of Visible Light 16h 05m
Length of Day
14h 59m
Waning Gibbous, 66% of the Moon is Illuminated
Jun 28
Waning Gibbous
Jun 29
Last Quarter
Jul 8
New
Jul 15
First Quarter
Jul 22
Full

Hourly Weather History & Observations

Time (CDT) Temp. Heat Index Dew Point Humidity Pressure Visibility Wind Dir Wind Speed Gust Speed Precip Events Conditions
12:55 AM 70.0 °F - 66.9 °F 90% 29.86 in 10.0 mi NW 4.6 mph - N/A   Clear
1:55 AM 70.0 °F - 66.9 °F 90% 29.88 in 10.0 mi West 5.8 mph - N/A   Clear
2:55 AM 69.1 °F - 64.9 °F 87% 29.88 in 10.0 mi West 6.9 mph - N/A   Clear
3:55 AM 66.9 °F - 64.0 °F 90% 29.87 in 10.0 mi West 5.8 mph - N/A   Clear
4:55 AM 66.9 °F - 64.0 °F 90% 29.86 in 10.0 mi WNW 5.8 mph - N/A   Clear
5:55 AM 64.0 °F - 62.1 °F 93% 29.87 in 10.0 mi West 3.5 mph - N/A   Clear
6:55 AM 69.1 °F - 64.0 °F 84% 29.87 in 10.0 mi West 3.5 mph - N/A   Clear
7:55 AM 73.0 °F - 64.9 °F 76% 29.87 in 10.0 mi WNW 6.9 mph - N/A   Clear
8:55 AM 77.0 °F - 64.0 °F 64% 29.88 in 10.0 mi NNW 9.2 mph - N/A   Clear
9:55 AM 78.1 °F - 64.0 °F 62% 29.88 in 10.0 mi NNW 8.1 mph 19.6 mph N/A   Clear
10:55 AM 80.1 °F 81.1 °F 61.0 °F 52% 29.87 in 10.0 mi NNW 13.8 mph - N/A   Clear
11:55 AM 82.0 °F 81.7 °F 57.0 °F 42% 29.88 in 10.0 mi North 13.8 mph 21.9 mph N/A   Clear
12:55 PM 82.9 °F 82.8 °F 59.0 °F 44% 29.86 in 10.0 mi NNW 10.4 mph 25.3 mph N/A   Clear
1:55 PM 84.0 °F 83.5 °F 57.9 °F 41% 29.85 in 10.0 mi WNW 16.1 mph 28.8 mph N/A   Clear
2:55 PM 84.0 °F 82.9 °F 55.0 °F 37% 29.84 in 10.0 mi NW 17.3 mph 27.6 mph N/A   Clear
3:55 PM 84.0 °F 82.9 °F 55.0 °F 37% 29.83 in 10.0 mi NW 16.1 mph 28.8 mph N/A   Clear
4:55 PM 84.0 °F 83.3 °F 57.0 °F 40% 29.82 in 10.0 mi NW 12.7 mph 20.7 mph N/A   Scattered Clouds
5:55 PM 82.9 °F 82.1 °F 55.9 °F 39% 29.80 in 10.0 mi WNW 19.6 mph 26.5 mph N/A   Partly Cloudy
6:55 PM 81.0 °F 81.0 °F 57.0 °F 44% 29.79 in 10.0 mi NW 8.1 mph - N/A   Clear
7:55 PM 78.1 °F - 55.9 °F 46% 29.78 in 10.0 mi NW 8.1 mph - N/A   Clear
8:55 PM 72.0 °F - 57.0 °F 59% 29.78 in 10.0 mi WNW 6.9 mph - N/A   Clear
9:55 PM 68.0 °F - 57.0 °F 68% 29.79 in 10.0 mi West 5.8 mph - N/A   Clear
10:55 PM 68.0 °F - 57.0 °F 68% 29.79 in 10.0 mi NW 5.8 mph - N/A   Clear
11:55 PM 66.0 °F - 57.0 °F 73% 29.78 in 10.0 mi WNW 5.8 mph - N/A   Clear